When you browse on this site, cookies collect data to enhance your experience and personalize the content and advertising you see.
Visit our Privacy Policy to learn more. By continuing to use the site, you agree to this use of cookies and data.
  • In Latvia
  • List of Countries
  • For 7 days
  • Water Temperature
  • Satellite Maps
  • Weather Map
  • Weather Widgets
  • user-avatar
    Login

    Hourly Weather Tibissa

    Today, 25 March, Monday

    Time Temperature Precipitation Wind Pressure Humidity
    00:00 +10°C° 0 mm 2 mps 688 mmHg 65%
    01:00 +9°C° 0 mm 2 mps 688 mmHg 68%
    02:00 +9°C° 0 mm 2 mps 687 mmHg 70%
    03:00 +9°C° 0 mm 2 mps 687 mmHg 71%
    04:00 +8°C° 0 mm 2 mps 687 mmHg 73%
    05:00 +8°C° 0 mm 2 mps 687 mmHg 73%
    06:00 +8°C° 0 mm 2 mps 687 mmHg 72%
    07:00 +8°C° 0 mm 2 mps 687 mmHg 72%
    08:00 +10°C° 0 mm 3 mps 687 mmHg 64%
    09:00 +12°C° 0 mm 3 mps 687 mmHg 55%
    10:00 +14°C° 0 mm 4 mps 688 mmHg 46%
    11:00 +15°C° 0 mm 4 mps 688 mmHg 43%
    12:00 +17°C° 0 mm 4 mps 688 mmHg 39%
    13:00 +18°C° 0 mm 4 mps 687 mmHg 35%
    14:00 +17°C° 0 mm 5 mps 687 mmHg 34%
    15:00 +19°C° 0 mm 5 mps 686 mmHg 33%
    16:00 +19°C° 0 mm 5 mps 686 mmHg 32%
    17:00 +18°C° 0.2 mm 4 mps 685 mmHg 41%
    18:00 +15°C° 0.2 mm 4 mps 685 mmHg 49%
    19:00 +14°C° 0.2 mm 4 mps 685 mmHg 58%
    20:00 +13°C° 0.4 mm 3 mps 685 mmHg 63%
    21:00 +13°C° 0.4 mm 2 mps 685 mmHg 68%
    22:00 +13°C° 0.4 mm 2 mps 685 mmHg 73%
    23:00 +12°C° 0 mm 1 mps 685 mmHg 76%

    Tomorrow, 26 March, Tuesday

    Time Temperature Precipitation Wind Pressure Humidity
    00:00 +11°C° 0 mm 1 mps 685 mmHg 79%
    01:00 +11°C° 0 mm 1 mps 684 mmHg 82%
    02:00 +11°C° 0 mm 1 mps 684 mmHg 82%
    03:00 +10°C° 0 mm 1 mps 684 mmHg 82%
    04:00 +9°C° 0 mm 2 mps 683 mmHg 81%
    05:00 +10°C° 0 mm 1 mps 683 mmHg 81%
    06:00 +10°C° 0 mm 1 mps 683 mmHg 81%
    07:00 +10°C° 0 mm 1 mps 683 mmHg 81%
    08:00 +12°C° 0 mm 1 mps 684 mmHg 71%
    09:00 +13°C° 0 mm 2 mps 684 mmHg 62%
    10:00 +15°C° 0 mm 2 mps 685 mmHg 52%
    11:00 +16°C° 0 mm 3 mps 685 mmHg 48%
    12:00 +17°C° 0 mm 4 mps 685 mmHg 43%
    13:00 +19°C° 0 mm 5 mps 684 mmHg 38%
    14:00 +17°C° 0.3 mm 6 mps 684 mmHg 44%
    15:00 +16°C° 0.3 mm 6 mps 683 mmHg 49%
    16:00 +15°C° 0.3 mm 7 mps 683 mmHg 55%
    17:00 +13°C° 1.9 mm 5 mps 683 mmHg 64%
    18:00 +12°C° 1.9 mm 4 mps 683 mmHg 73%
    19:00 +11°C° 1.9 mm 3 mps 683 mmHg 81%
    20:00 +10°C° 1.1 mm 3 mps 683 mmHg 84%
    21:00 +10°C° 1.1 mm 4 mps 684 mmHg 86%
    22:00 +8°C° 1.1 mm 4 mps 684 mmHg 89%
    23:00 +7°C° 0.6 mm 4 mps 684 mmHg 87%

    Day after tomorrow, 27 March, Wednesday

    Time Temperature Precipitation Wind Pressure Humidity
    00:00 +7°C° 0.6 mm 5 mps 684 mmHg 86%
    01:00 +6°C° 0.6 mm 5 mps 684 mmHg 84%
    02:00 +6°C° 0.9 mm 5 mps 684 mmHg 82%
    03:00 +5°C° 0.9 mm 4 mps 684 mmHg 81%
    04:00 +5°C° 0.9 mm 4 mps 683 mmHg 79%
    05:00 +5°C° 1.1 mm 4 mps 684 mmHg 79%
    06:00 +5°C° 1.1 mm 4 mps 684 mmHg 79%
    07:00 +5°C° 1.1 mm 4 mps 684 mmHg 79%
    08:00 +5°C° 0.6 mm 4 mps 684 mmHg 78%
    09:00 +5°C° 0.6 mm 4 mps 684 mmHg 78%
    10:00 +5°C° 0.6 mm 3 mps 684 mmHg 77%
    11:00 +7°C° 0.8 mm 3 mps 684 mmHg 77%
    12:00 +7°C° 0.8 mm 3 mps 684 mmHg 76%
    13:00 +7°C° 0.8 mm 3 mps 684 mmHg 76%
    14:00 +7°C° 1.7 mm 3 mps 684 mmHg 78%
    15:00 +7°C° 1.7 mm 3 mps 684 mmHg 81%
    16:00 +5°C° 1.7 mm 4 mps 684 mmHg 83%
    17:00 +5°C° 0.2 mm 3 mps 684 mmHg 83%
    18:00 +5°C° 0.2 mm 3 mps 684 mmHg 83%
    19:00 +7°C° 0.2 mm 3 mps 684 mmHg 82%
    20:00 +5°C° 0 mm 3 mps 684 mmHg 85%
    21:00 +5°C° 0 mm 3 mps 684 mmHg 88%
    22:00 +4°C° 0 mm 3 mps 684 mmHg 91%
    23:00 +4°C° 0 mm 3 mps 684 mmHg 93%

    28 March, Thursday

    Time Temperature Precipitation Wind Pressure Humidity
    00:00 +4°C° 0 mm 3 mps 684 mmHg 94%
    01:00 +4°C° 0 mm 3 mps 684 mmHg 95%
    02:00 +4°C° 0 mm 4 mps 684 mmHg 94%
    03:00 +4°C° 0 mm 4 mps 684 mmHg 93%
    04:00 +4°C° 0 mm 4 mps 684 mmHg 91%
    05:00 +4°C° 0 mm 4 mps 684 mmHg 91%
    06:00 +5°C° 0 mm 4 mps 684 mmHg 91%
    07:00 +5°C° 0 mm 4 mps 685 mmHg 91%
    08:00 +5°C° 0 mm 5 mps 685 mmHg 86%
    09:00 +6°C° 0 mm 5 mps 685 mmHg 82%
    10:00 +7°C° 0 mm 5 mps 686 mmHg 78%
    11:00 +7°C° 0.1 mm 5 mps 686 mmHg 76%
    12:00 +8°C° 0.1 mm 5 mps 686 mmHg 73%
    13:00 +8°C° 0.1 mm 5 mps 686 mmHg 71%
    14:00 +9°C° 0 mm 5 mps 686 mmHg 70%
    15:00 +9°C° 0 mm 5 mps 686 mmHg 68%
    16:00 +9°C° 0 mm 5 mps 685 mmHg 67%
    17:00 +9°C° 0.1 mm 5 mps 686 mmHg 72%
    18:00 +8°C° 0.1 mm 5 mps 686 mmHg 77%
    19:00 +7°C° 0.1 mm 5 mps 686 mmHg 83%
    20:00 +7°C° 0 mm 4 mps 687 mmHg 85%
    21:00 +6°C° 0 mm 4 mps 687 mmHg 88%
    22:00 +7°C° 0 mm 3 mps 688 mmHg 90%
    23:00 +7°C° 0 mm 3 mps 688 mmHg 90%

    29 March, Friday

    Time Temperature Precipitation Wind Pressure Humidity
    00:00 +5°C° 0 mm 3 mps 688 mmHg 90%
    01:00 +5°C° 0 mm 3 mps 688 mmHg 90%
    02:00 +5°C° 0 mm 3 mps 688 mmHg 90%
    03:00 +5°C° 0 mm 3 mps 688 mmHg 90%
    04:00 +5°C° 0 mm 3 mps 688 mmHg 89%
    05:00 +6°C° 0 mm 2 mps 688 mmHg 90%
    06:00 +5°C° 0 mm 2 mps 688 mmHg 90%
    07:00 +5°C° 0 mm 2 mps 688 mmHg 90%
    08:00 +6°C° 0 mm 2 mps 689 mmHg 82%
    09:00 +8°C° 0 mm 3 mps 689 mmHg 74%
    10:00 +9°C° 0 mm 3 mps 690 mmHg 66%
    11:00 +10°C° 0 mm 3 mps 690 mmHg 61%
    12:00 +11°C° 0 mm 3 mps 690 mmHg 56%
    13:00 +12°C° 0 mm 3 mps 690 mmHg 51%
    14:00 +12°C° 0 mm 3 mps 689 mmHg 49%
    15:00 +13°C° 0 mm 2 mps 689 mmHg 47%
    16:00 +14°C° 0 mm 2 mps 689 mmHg 45%
    17:00 +12°C° 0 mm 3 mps 689 mmHg 49%
    18:00 +12°C° 0 mm 3 mps 689 mmHg 54%
    19:00 +11°C° 0 mm 3 mps 689 mmHg 58%
    20:00 +10°C° 0.1 mm 3 mps 689 mmHg 65%
    21:00 +9°C° 0.1 mm 2 mps 690 mmHg 72%
    22:00 +9°C° 0.1 mm 2 mps 690 mmHg 79%
    23:00 +9°C° 0 mm 1 mps 690 mmHg 81%

    30 March, Saturday

    Time Temperature Precipitation Wind Pressure Humidity
    00:00 +9°C° 0 mm 1 mps 690 mmHg 84%
    01:00 +8°C° 0 mm 0 mps 689 mmHg 86%
    02:00 +7°C° 0 mm 0 mps 689 mmHg 87%
    03:00 +7°C° 0 mm 0 mps 689 mmHg 88%
    04:00 +7°C° 0 mm 0 mps 689 mmHg 89%
    05:00 +7°C° 0 mm 0 mps 689 mmHg 88%
    06:00 +8°C° 0 mm 1 mps 689 mmHg 88%
    07:00 +8°C° 0 mm 1 mps 690 mmHg 88%
    08:00 +9°C° 0 mm 1 mps 690 mmHg 79%
    09:00 +10°C° 0 mm 2 mps 690 mmHg 69%
    10:00 +11°C° 0 mm 3 mps 691 mmHg 60%
    11:00 +12°C° 0 mm 3 mps 691 mmHg 55%
    12:00 +13°C° 0 mm 4 mps 690 mmHg 50%
    13:00 +14°C° 0 mm 4 mps 690 mmHg 45%
    14:00 +14°C° 0 mm 4 mps 690 mmHg 45%
    15:00 +14°C° 0 mm 4 mps 689 mmHg 46%
    16:00 +14°C° 0 mm 4 mps 689 mmHg 46%
    17:00 +13°C° 0 mm 3 mps 689 mmHg 50%
    18:00 +12°C° 0 mm 3 mps 689 mmHg 53%
    19:00 +12°C° 0 mm 3 mps 688 mmHg 57%
    20:00 +12°C° 0 mm 2 mps 689 mmHg 60%
    21:00 +11°C° 0 mm 1 mps 689 mmHg 63%
    22:00 +11°C° 0 mm 1 mps 689 mmHg 65%
    23:00 +10°C° 0 mm 1 mps 689 mmHg 68%
    Show more